Tracking 19484 objects as of 19-Jan-2019
HD Live streaming from Space Station
objects crossing your sky now

COSMOS 1014

Track COSMOS 1014 now!
10-day predictions
COSMOS 1014 is classified as:


NORAD ID: 10931
Int'l Code: 1978-056B
Perigee: 1,485.2 km
Apogee: 1,538.4 km
Inclination: 74.0 °
Period: 116.1 minutes
Semi major axis: 7882 km
RCS: 0.7039 m2 (medium)
Launch date: June 7, 1978
Source: Commonwealth of Independent States (former USSR) (CIS)
Launch site: PLESETSK MISSILE AND SPACE COMPLEX (PKMTR)
aabbcc
Your satellite tracking list
Your tracking list is empty




NASA's NSSDC Master Catalog

Two Line Element Set (TLE):
1 10931U 78056B   19017.97345288 -.00000029 +00000-0 -99184-4 0  9992
2 10931 074.0286 310.2915 0033722 307.4668 122.7111 12.40452705839112
Source of the keplerian elements: AFSPC